Total_Precipitation_Accumulation
0.01 0.01 0.01 0.02 0.03 0.04 0.12 0.17 0.23 0.26 0.31 0.28 0.26 0.29 0.41 0.55 0.71 1.28 0.78 0.41 0.25 0.15 0.13 0.15 0.22 0.18 0.16 0.17 0.18 0.22 0.27 0.21 0.17 0.16 0.16 0.17 0.17 0.17 0.17 0.17 0.19 0.25 0.30 0.29 0.28 0.29 0.31 0.28 0.24
0.01 0.01 0.02 0.03 0.03 0.09 0.20 0.21 0.24 0.24 0.28 0.29 0.27 0.28 0.35 0.46 0.36 0.34 0.32 0.31 0.26 0.15 0.12 0.11 0.16 0.20 0.17 0.16 0.18 0.23 0.29 0.21 0.19 0.18 0.17 0.17 0.17 0.18 0.19 0.20 0.23 0.30 0.35 0.35 0.34 0.32 0.30 0.28 0.25
0.01 0.01 0.01 0.02 0.03 0.09 0.25 0.29 0.29 0.28 0.29 0.29 0.34 0.40 0.45 0.56 0.47 0.38 0.34 0.33 0.29 0.18 0.14 0.13 0.14 0.17 0.17 0.18 0.18 0.27 0.31 0.23 0.20 0.19 0.18 0.18 0.18 0.17 0.20 0.24 0.26 0.29 0.34 0.33 0.28 0.25 0.25 0.29 0.27
0.01 0.01 0.01 0.04 0.06 0.09 0.19 0.29 0.32 0.32 0.34 0.32 0.37 0.55 0.53 0.53 0.50 0.45 0.41 0.41 0.32 0.24 0.18 0.14 0.15 0.17 0.19 0.22 0.23 0.32 0.28 0.24 0.23 0.22 0.24 0.24 0.23 0.22 0.26 0.31 0.35 0.35 0.37 0.35 0.32 0.30 0.29 0.32 0.28
0.01 0.01 0.03 0.06 0.08 0.11 0.18 0.27 0.41 0.44 0.45 0.41 0.45 0.71 0.86 0.79 0.73 0.65 0.44 0.42 0.40 0.31 0.25 0.18 0.19 0.21 0.26 0.32 0.34 0.43 0.35 0.31 0.32 0.33 0.33 0.30 0.29 0.30 0.32 0.37 0.41 0.40 0.41 0.40 0.39 0.40 0.38 0.35 0.30
0.00 0.01 0.04 0.08 0.08 0.11 0.20 0.30 0.37 0.40 0.36 0.34 0.50 0.91 1.35 1.16 0.89 0.94 0.81 0.55 0.47 0.37 0.31 0.29 0.26 0.30 0.38 0.45 0.46 0.53 0.44 0.40 0.39 0.42 0.41 0.36 0.32 0.32 0.34 0.38 0.42 0.46 0.49 0.48 0.42 0.38 0.36 0.34 0.33
0.00 0.01 0.03 0.08 0.13 0.15 0.22 0.29 0.41 0.36 0.32 0.44 0.74 1.12 1.49 1.37 1.09 1.08 1.05 0.77 0.67 0.55 0.45 0.41 0.37 0.39 0.48 0.59 0.57 0.57 0.49 0.46 0.44 0.49 0.51 0.46 0.39 0.35 0.37 0.43 0.47 0.49 0.49 0.44 0.40 0.36 0.35 0.36 0.36
0.01 0.01 0.03 0.06 0.16 0.19 0.21 0.29 0.37 0.34 0.41 0.59 0.87 1.08 1.38 1.43 1.21 1.06 0.98 0.91 0.85 0.85 0.71 0.63 0.61 0.59 0.60 0.64 0.65 0.60 0.53 0.52 0.50 0.50 0.51 0.50 0.43 0.41 0.44 0.46 0.51 0.48 0.51 0.51 0.49 0.48 0.47 0.47 0.45
0.01 0.02 0.03 0.07 0.15 0.22 0.24 0.27 0.29 0.31 0.40 0.61 0.73 0.77 1.08 1.23 1.16 1.17 1.10 0.98 0.95 0.96 1.08 1.01 0.87 0.84 0.82 0.75 0.69 0.71 0.63 0.59 0.55 0.53 0.51 0.51 0.57 0.66 0.66 0.57 0.60 0.59 0.65 0.75 0.71 0.66 0.64 0.60 0.58
0.02 0.04 0.05 0.07 0.11 0.20 0.27 0.29 0.27 0.32 0.36 0.56 0.86 0.85 0.85 1.05 1.23 1.34 1.36 1.23 1.16 1.17 1.29 1.31 1.27 1.20 1.12 1.02 1.06 1.07 0.94 0.82 0.69 0.76 0.74 0.73 0.99 1.09 0.96 1.00 0.94 0.90 0.88 0.93 0.95 0.87 0.78 0.72 0.66
0.03 0.06 0.08 0.11 0.10 0.15 0.23 0.24 0.23 0.35 0.51 0.57 0.91 1.24 1.07 1.20 1.51 1.81 1.66 1.59 1.59 1.52 1.33 1.25 1.39 1.46 1.58 1.64 1.47 1.46 1.44 1.35 1.19 1.30 1.25 1.27 1.44 1.35 1.35 1.44 1.31 1.17 1.11 1.10 1.27 1.13 0.86 0.79 0.84
0.03 0.05 0.08 0.12 0.10 0.12 0.14 0.21 0.28 0.40 0.69 0.77 0.97 1.23 1.53 1.52 1.75 1.85 1.91 1.89 1.83 1.85 1.67 1.45 1.42 1.47 1.68 1.86 1.76 1.72 1.70 1.67 1.57 1.59 1.43 1.62 1.80 1.89 1.91 1.99 1.80 1.71 1.64 1.66 1.66 1.57 1.31 1.14 1.09
0.03 0.04 0.06 0.09 0.10 0.09 0.14 0.25 0.30 0.35 0.43 0.62 0.83 1.05 1.47 1.50 1.55 1.82 2.10 2.36 2.38 2.24 2.08 1.89 1.68 1.65 1.81 2.03 2.11 2.03 2.01 1.98 2.08 2.18 1.95 1.96 1.98 2.08 2.37 2.37 2.49 2.16 2.15 2.20 2.12 1.92 1.81 1.63 1.44
0.03 0.03 0.04 0.06 0.07 0.09 0.14 0.20 0.25 0.26 0.32 0.44 0.54 0.76 1.05 1.25 1.52 1.98 2.34 2.60 2.96 2.79 2.45 2.22 2.11 1.95 1.93 2.01 2.22 2.33 2.20 2.26 2.36 2.49 2.37 2.38 2.46 2.58 2.91 2.99 2.94 2.67 2.69 2.85 2.88 2.68 2.41 2.16 2.02
0.02 0.03 0.04 0.05 0.07 0.07 0.10 0.21 0.26 0.29 0.32 0.38 0.46 0.65 0.91 1.31 1.62 2.17 2.62 2.87 3.20 2.95 2.86 2.69 2.59 2.52 2.30 2.25 2.46 2.62 2.53 2.47 2.47 2.65 2.76 2.76 2.84 3.14 3.25 3.50 3.42 3.19 3.15 3.17 3.12 3.29 3.24 2.76 2.42
0.04 0.05 0.06 0.08 0.06 0.06 0.09 0.24 0.29 0.28 0.31 0.39 0.54 0.75 0.99 1.31 1.63 1.90 2.22 2.56 3.06 3.14 2.93 2.89 2.62 2.57 2.72 2.72 2.96 2.97 3.03 3.15 3.08 3.07 3.27 3.31 3.37 3.48 3.52 3.51 3.53 3.42 3.36 3.61 3.70 3.63 3.56 3.32 2.98
0.06 0.04 0.06 0.07 0.06 0.06 0.07 0.21 0.33 0.26 0.29 0.41 0.57 0.85 1.21 1.29 1.51 1.62 1.91 2.20 2.57 2.64 2.74 2.89 2.84 2.75 2.77 2.96 3.31 3.48 3.63 3.83 4.02 4.05 4.22 4.15 3.97 3.92 3.96 3.92 3.98 3.83 3.84 3.79 3.65 3.94 3.83 3.65 3.31
0.03 0.04 0.05 0.06 0.06 0.06 0.07 0.16 0.35 0.40 0.42 0.52 0.58 0.75 1.05 1.16 1.53 1.76 1.88 1.97 2.34 2.55 2.74 2.92 3.05 3.19 3.14 3.18 3.40 3.84 4.04 4.21 4.60 4.66 4.66 4.73 4.76 4.64 4.60 4.53 4.52 4.37 4.24 4.09 4.01 4.00 3.76 3.61 3.34
0.02 0.04 0.04 0.05 0.05 0.07 0.12 0.21 0.33 0.44 0.50 0.65 0.81 0.87 0.90 1.07 1.50 1.90 2.08 2.18 2.51 2.75 2.93 2.90 3.06 3.36 3.60 3.98 3.97 4.18 4.62 4.98 5.13 5.25 5.22 5.14 5.06 5.05 4.89 4.71 4.79 4.64 4.42 4.18 4.03 3.97 3.84 3.51 3.33
0.02 0.03 0.04 0.06 0.08 0.10 0.17 0.29 0.38 0.47 0.54 0.68 0.86 0.92 0.87 1.08 1.39 1.82 2.05 2.38 2.62 2.76 3.02 3.15 3.25 3.64 4.14 4.70 5.22 5.62 5.97 5.98 6.10 6.06 5.94 5.64 5.45 5.33 5.14 5.09 4.93 4.71 4.54 4.30 4.09 3.99 3.86 3.52 3.41
0.02 0.03 0.05 0.07 0.10 0.15 0.21 0.39 0.51 0.61 0.69 0.77 0.86 0.92 0.99 1.19 1.49 1.70 1.95 2.27 2.54 2.76 3.03 3.21 3.50 4.09 4.91 5.43 5.90 6.47 6.80 6.53 6.27 5.99 5.91 5.81 5.74 5.61 5.43 5.37 5.10 4.87 4.59 4.25 3.98 3.82 3.71 3.57 3.49
0.04 0.05 0.05 0.07 0.11 0.21 0.24 0.47 0.74 0.85 0.96 0.90 0.99 1.13 1.26 1.37 1.51 1.70 1.92 2.20 2.50 2.84 2.97 3.17 3.71 4.42 5.08 5.63 6.25 6.85 7.15 7.21 7.01 6.45 5.95 5.52 5.23 5.00 4.87 4.81 4.64 4.44 4.16 3.92 3.65 3.52 3.44 3.53 3.36
0.04 0.04 0.05 0.08 0.11 0.19 0.23 0.45 0.91 1.15 1.25 1.21 1.26 1.31 1.33 1.37 1.47 1.63 1.83 2.05 2.18 2.53 3.00 3.32 3.87 4.53 5.18 5.91 6.64 7.08 7.33 7.34 6.98 6.19 5.42 4.89 4.55 4.26 4.03 3.95 3.85 3.68 3.49 3.31 3.23 3.21 3.14 3.11 2.97
0.02 0.04 0.07 0.11 0.16 0.25 0.25 0.43 1.02 1.39 1.60 1.58 1.47 1.48 1.46 1.38 1.37 1.40 1.61 1.78 2.06 2.40 2.80 3.28 3.60 4.19 4.86 5.46 6.03 6.22 6.38 6.33 5.92 5.50 5.02 4.61 4.08 3.60 3.25 3.10 3.00 2.86 2.75 2.73 2.75 2.77 2.72 2.70 2.67
0.02 0.07 0.22 0.35 0.39 0.37 0.28 0.53 1.10 1.41 1.42 1.42 1.41 1.49 1.47 1.29 1.32 1.52 1.79 1.77 2.02 2.29 2.67 3.11 3.49 3.88 4.39 4.92 5.40 5.64 5.78 5.66 5.18 4.72 4.28 3.85 3.35 2.96 2.67 2.50 2.45 2.36 2.29 2.29 2.39 2.46 2.40 2.34 2.35
0.04 0.09 0.27 0.45 0.50 0.52 0.49 0.85 1.28 1.30 1.20 1.15 1.14 1.19 1.33 1.36 1.39 1.51 1.64 1.71 1.98 2.18 2.42 2.80 3.14 3.52 3.75 3.98 4.35 4.59 4.73 4.59 4.25 3.76 3.27 2.95 2.67 2.38 2.20 2.09 2.02 1.95 1.86 1.84 1.95 2.06 2.12 2.08 2.10
0.06 0.08 0.16 0.21 0.27 0.51 0.87 1.17 1.52 1.45 1.32 1.22 1.10 1.12 1.23 1.21 1.23 1.34 1.50 1.62 1.81 2.09 2.42 2.68 2.82 3.01 3.22 3.42 3.49 3.48 3.58 3.48 3.22 2.91 2.59 2.30 2.03 1.79 1.68 1.62 1.59 1.55 1.52 1.57 1.69 1.75 1.72 1.73 1.78
0.07 0.08 0.12 0.21 0.48 0.72 0.99 1.47 1.81 1.91 1.81 1.67 1.37 1.26 1.20 1.23 1.23 1.25 1.36 1.52 1.60 1.70 2.02 2.32 2.39 2.50 2.60 2.68 2.72 2.65 2.68 2.57 2.49 2.33 2.09 1.82 1.66 1.48 1.39 1.34 1.33 1.33 1.32 1.35 1.39 1.47 1.49 1.46 1.48
0.09 0.11 0.14 0.22 0.34 0.68 1.09 1.66 1.87 2.16 2.24 2.08 1.74 1.58 1.52 1.46 1.37 1.33 1.37 1.40 1.46 1.56 1.71 1.94 2.14 2.16 2.20 2.33 2.31 2.19 2.22 2.21 2.17 2.05 1.89 1.75 1.68 1.56 1.40 1.28 1.31 1.30 1.27 1.24 1.27 1.27 1.31 1.35 1.37
0.10 0.14 0.22 0.40 0.43 0.49 0.95 1.85 2.15 2.27 2.22 1.98 1.80 1.67 1.59 1.50 1.34 1.29 1.25 1.21 1.26 1.42 1.53 1.64 1.84 1.91 1.93 2.01 2.07 2.13 2.12 2.05 1.95 1.77 1.65 1.52 1.40 1.28 1.19 1.13 1.17 1.16 1.12 1.12 1.09 1.05 1.07 1.11 1.16